カタログに戻る

SL-16 DEB

運用中LEO
NORAD 39720·DEBRIS·🇷🇺 Russia

打ち上げ Dec 25, 1992 から Baikonur Cosmodrome

Loading…

次のパス (今後24時間)

TLE

経年Source: Space-Track

元期: Sep 10, 2026, 07:29 UTC

1 39720U 92093KL  26253.31199286  .00001723  00000-0  37750-3 0  9999
2 39720  70.7834 123.1957 0021830  73.7702 286.5841 14.59070799654831

AllMySatでSL-16 DEBをリアルタイム追跡

Download on the App Store